Weather History for Wheeling, WV

Change the Weather History Date:

Thursday, February 13, 2014

  Actual Average Record
Temperature  
Mean Temperature 27 °F 32 °F  
Max Temperature 32 °F 39 °F 60 °F (1984)
Min Temperature 22 °F 24 °F 14 °F (2003)
Degree Days  
Heating Degree Days 38 33  
Month to date heating degree days 518 447  
Since 1 July heating degree days 3923 3689  
Cooling Degree Days 0    
Month to date cooling degree days 0  
Year to date cooling degree days 0  
Moisture  
Dew Point 19 °F    
Average Humidity 68    
Maximum Humidity 81    
Minimum Humidity 54    
Precipitation  
Precipitation T in 0.08 in 0.91 in (2000)
Month to date precipitation 1.12 1.01  
Sea Level Pressure  
Sea Level Pressure 29.77 in    
Wind  
Wind Speed 7 mph (North)    
Max Wind Speed 13 mph    
Max Gust Speed 16 mph    
Visibility 8 miles    
Events Snow    
T = Trace of Precipitation, MM = Missing Value Source: NWS Daily Summary

Daily Weather History Graph

Daily Weather History Graph

Search for Another Location

Airport:

Trip Planner

Search our weather history database for the weather conditions in past years. The results will help you decide how hot, cold, wet, or windy it might be!

Date:

Astronomy

Feb. 13, 2014 Rise Set
Actual Time 7:18 AM EST 5:55 PM EST
Civil Twilight 6:50 AM EST 6:23 PM EST
Nautical Twilight 6:18 AM EST 6:55 PM EST
Astronomical Twilight 5:46 AM EST 7:27 PM EST
Moon 5:02 PM EST (2/13) 6:10 AM EST (2/13)
Length of Visible Light 11h 33m
Length of Day
10h 37m
Waxing Gibbous, 98% of the Moon is Illuminated
Feb 13
Waxing Gibbous
Feb 14
Full
Feb 22
Last Quarter
Mar 1
New
Mar 8
First Quarter

Hourly Weather History & Observations

Time (EST) Temp. Windchill Dew Point Humidity Pressure Visibility Wind Dir Wind Speed Gust Speed Precip Events Conditions
12:53 AM 21.9 °F 13.4 °F 9.0 °F 58% 30.06 in 10.0 mi East 6.9 mph - N/A   Clear
1:53 AM 21.9 °F 14.5 °F 10.0 °F 60% 30.04 in 10.0 mi East 5.8 mph - N/A   Clear
2:53 AM 23.0 °F 15.8 °F 12.0 °F 63% 30.00 in 10.0 mi ENE 5.8 mph - N/A   Overcast
3:53 AM 21.9 °F 14.5 °F 12.9 °F 68% 29.96 in 10.0 mi NE 5.8 mph - N/A   Mostly Cloudy
4:53 AM 23.0 °F 12.4 °F 16.0 °F 74% 29.93 in 10.0 mi ENE 10.4 mph - N/A   Overcast
5:35 AM 24.1 °F 15.2 °F 17.1 °F 75% 29.87 in 10.0 mi ENE 8.1 mph - N/A   Overcast
5:53 AM 23.0 °F 13.9 °F 17.1 °F 78% 29.91 in 10.0 mi NE 8.1 mph - N/A   Scattered Clouds
6:49 AM 23.0 °F 14.7 °F 17.6 °F 80% 29.84 in 10.0 mi NNE 6.9 mph - N/A   Overcast
6:53 AM 23.0 °F 14.7 °F 17.1 °F 78% 29.90 in 10.0 mi NNE 6.9 mph - N/A   Overcast
7:05 AM 23.0 °F 14.7 °F 16.0 °F 74% 29.83 in 10.0 mi NNE 6.9 mph - N/A   Overcast
7:53 AM 21.9 °F 13.4 °F 16.0 °F 78% 29.89 in 10.0 mi North 6.9 mph - N/A   Mostly Cloudy
8:53 AM 21.9 °F 11.7 °F 15.1 °F 75% 29.89 in 10.0 mi NNE 9.2 mph - N/A   Overcast
9:11 AM 21.9 °F 14.5 °F 16.0 °F 78% 29.83 in 10.0 mi North 5.8 mph - N/A   Overcast
9:39 AM 21.9 °F 12.5 °F 16.0 °F 78% 29.82 in 10.0 mi North 8.1 mph - N/A   Overcast
9:53 AM 23.0 °F 13.9 °F 16.0 °F 74% 29.88 in 10.0 mi North 8.1 mph - N/A   Overcast
10:53 AM 24.1 °F 16.0 °F 17.1 °F 75% 29.86 in 10.0 mi North 6.9 mph - N/A   Overcast
11:53 AM 24.1 °F 15.2 °F 19.0 °F 81% 29.83 in 4.0 mi NE 8.1 mph - 0.00 in Snow Light Snow
12:01 PM 24.1 °F 17.0 °F 19.0 °F 81% 29.77 in 3.0 mi NE 5.8 mph - 0.00 in Snow Light Snow
12:06 PM 24.1 °F 15.2 °F 19.9 °F 84% 29.76 in 1.8 mi NE 8.1 mph - 0.00 in Snow Light Snow
12:19 PM 24.1 °F 16.0 °F 19.9 °F 84% 29.75 in 0.8 mi NE 6.9 mph - 0.00 in Snow Light Snow
12:38 PM 25.0 °F 19.3 °F 21.9 °F 88% 29.73 in 1.2 mi NNE 4.6 mph - 0.00 in Snow Light Snow
12:53 PM 26.1 °F 21.9 °F 21.9 °F 84% 29.77 in 1.8 mi NNE 3.5 mph - 0.00 in Snow Light Snow
1:00 PM 26.1 °F 20.5 °F 21.9 °F 84% 29.71 in 2.0 mi Variable 4.6 mph - 0.00 in Snow Light Snow
1:14 PM 27.0 °F 20.5 °F 23.0 °F 85% 29.70 in 2.0 mi North 5.8 mph - 0.00 in Snow Light Snow
1:25 PM 27.0 °F 21.6 °F 23.0 °F 85% 29.69 in 2.5 mi NW 4.6 mph - 0.00 in Snow Light Snow
1:29 PM 27.0 °F 21.6 °F 23.0 °F 85% 29.69 in 3.0 mi NW 4.6 mph - 0.00 in Snow Light Snow
1:53 PM 28.9 °F 25.2 °F 23.0 °F 78% 29.72 in 5.0 mi Variable 3.5 mph - 0.00 in   Haze
2:25 PM 30.0 °F 25.2 °F 24.1 °F 79% 29.65 in 10.0 mi North 4.6 mph - N/A   Mostly Cloudy
2:38 PM 30.0 °F 22.4 °F 24.1 °F 79% 29.64 in 10.0 mi North 8.1 mph - N/A   Mostly Cloudy
2:53 PM 30.0 °F 24.1 °F 24.1 °F 79% 29.68 in 10.0 mi North 5.8 mph - N/A   Overcast
3:53 PM 30.9 °F 25.2 °F 24.1 °F 76% 29.67 in 10.0 mi NW 5.8 mph - N/A   Overcast
4:08 PM 30.9 °F 25.2 °F 24.1 °F 76% 29.62 in 10.0 mi NNW 5.8 mph - N/A   Overcast
4:53 PM 32.0 °F 23.6 °F 24.1 °F 73% 29.68 in 10.0 mi WNW 10.4 mph - N/A   Overcast
5:53 PM 32.0 °F 24.8 °F 23.0 °F 69% 29.67 in 10.0 mi NW 8.1 mph - N/A   Overcast
6:53 PM 30.9 °F 23.5 °F 24.1 °F 76% 29.67 in 10.0 mi WNW 8.1 mph - N/A   Overcast
7:37 PM 30.0 °F 22.4 °F 21.9 °F 72% 29.62 in 10.0 mi WNW 8.1 mph - N/A   Scattered Clouds
7:53 PM 28.9 °F 21.1 °F 21.9 °F 75% 29.67 in 10.0 mi West 8.1 mph - N/A   Clear
8:53 PM 28.0 °F 22.8 °F 21.9 °F 78% 29.64 in 10.0 mi WSW 4.6 mph - N/A   Clear
9:53 PM 27.0 °F 20.5 °F 19.9 °F 75% 29.63 in 10.0 mi West 5.8 mph - N/A   Clear
10:53 PM 26.1 °F 16.2 °F 19.0 °F 75% 29.62 in 10.0 mi West 10.4 mph - N/A   Scattered Clouds
11:53 PM 27.0 °F 19.5 °F 18.0 °F 69% 29.61 in 10.0 mi WSW 6.9 mph - N/A   Overcast